Flag for U.S.A. Weather past 2 weeks in Victoria, Texas, U.S.A.

Now
98 °F

Passing clouds.


Feels Like: 107 °F
Forecast: 74 / 98 °F
Wind: 14 mph from Southeast

Location: Victoria Regional Airport

Current Time: Jul 29, 2015 at 3:44:31 PM

Latest Report: Jul 29, 2015 at 2:51 PM


Visibility: 10 mi

Pressure: 30.01 "Hg

Humidity: 43%

Dew point: 72 °F

Location of VictoriaLocation

Historic Weather in Victoria — Graph

°F

Victoria temperature yesterday

Maximum temperature yesterday: 98 °F (at 3:51 PM)
Minimum temperature yesterday: 73 °F (at 6:48 AM)
Average temperature yesterday: 84 °F

Past Weeks' High & Low Weather Summary

 TemperatureHumidityPressure
High98 °F (Jul 28, 3:51 PM)100% (Jul 15, 4:51 AM)30.05 "Hg (Jul 15, 4:51 AM)
Low72 °F (Jul 20, 5:59 AM)32% (Jul 28, 3:51 PM)29.84 "Hg (Jul 21, 6:51 PM)
Average84 °F76%29.95 "Hg
* Reported Jul 14 1:51 PM — Jul 29 1:51 PM, Victoria, Weather by CustomWeather, © 2015

Note: Actual official high and low records may vary slightly from our data, if they occured in-between our weather recording intervals... More about our weather records

Advertising

Victoria weather history for previous 24 hours

 ConditionsComfort  
Time TempWeatherWind HumidityBarometerVisibility
1:51 PM
Wed, Jul 29
97 °FPassing clouds.8 mph45%30.02 "Hg10 mi
12:51 PM95 °FPassing clouds.8 mph47%30.04 "Hg10 mi
11:51 AM92 °FScattered clouds.7 mph56%30.04 "Hg10 mi
10:51 AM89 °FBroken clouds.8 mph65%30.05 "Hg9 mi
9:51 AM87 °FPartly sunny.7 mph75%30.05 "Hg9 mi
8:51 AM82 °FPassing clouds.7 mph91%30.03 "Hg7 mi
8:01 AM77 °FFog.3 mph100%30.02 "Hg2 mi
7:03 AM74 °FFog.6 mph100%30.01 "Hg0 mi
6:51 AM74 °FFog.3 mph100%30.00 "Hg1 mi
5:59 AM74 °FFog.No wind100%29.99 "Hg4 mi
4:51 AM75 °FFog.5 mph100%29.98 "Hg5 mi
3:51 AM75 °FFog.No wind100%29.97 "Hg5 mi
2:51 AM77 °FPassing clouds.5 mph100%29.98 "Hg7 mi
1:51 AM77 °FClear.6 mph100%29.98 "Hg8 mi
12:51 AM77 °FClear.3 mph96%30.00 "Hg7 mi
11:51 PM
Tue, Jul 28
79 °FClear.7 mph94%29.98 "Hg9 mi
10:51 PM80 °FClear.10 mph90%29.97 "Hg10 mi
9:51 PM81 °FClear.9 mph85%29.96 "Hg10 mi
8:51 PM83 °FSunny.9 mph77%29.94 "Hg10 mi
7:51 PM87 °FSunny.16 mph65%29.93 "Hg10 mi
6:51 PM90 °FSunny.20 mph59%29.93 "Hg10 mi
5:51 PM93 °FSunny.20 mph46%29.92 "Hg10 mi
4:51 PM95 °FSunny.18 mph40%29.92 "Hg10 mi
3:51 PM98 °FSunny.18 mph32%29.92 "Hg10 mi
Weather by CustomWeather, © 2015

See weather overviewHow to use our weather pages